This is the latest recevied weather packets stored in our database for station/object KC1HBM. If no packets are shown the sender has not sent any weather packets the latest 10 day(s).
| Time | Temp. | Humidity | Pressure | Rain* | Wind** | Luminosity | Snow |
|---|---|---|---|---|---|---|---|
| 1787923410 | 22.22° C | 97% | 1013.3 hPa | 0 mm | - | 42 W/m² | - |
| 1787923113 | 22.22° C | 98% | 1013.3 hPa | 0 mm | - | 52 W/m² | - |
| 1787922800 | 22.22° C | 98% | 1013.3 hPa | 0 mm | - | 52 W/m² | - |
| 1787922494 | 21.67° C | 98% | 1013.6 hPa | 0 mm | - | 46 W/m² | - |
| 1787922194 | 21.67° C | 99% | 1013.6 hPa | 0 mm | - | 58 W/m² | - |
| 1787921891 | 21.67° C | 99% | 1013.1 hPa | 0 mm | - | 63 W/m² | - |
| 1787921586 | 21.67° C | 99% | 1013.2 hPa | 0 mm | - | 72 W/m² | - |
| 1787921285 | 21.67° C | 99% | 1013.4 hPa | 0 mm | - | 76 W/m² | - |
| 1787920981 | 21.67° C | 99% | 1013.4 hPa | 0 mm | - | 62 W/m² | - |
| 1787920676 | 21.11° C | 99% | 1013.6 hPa | 0 mm | - | 56 W/m² | - |
| 1787920375 | 21.11° C | 99% | 1013.3 hPa | 0 mm | - | 53 W/m² | - |
| 1787920072 | 21.11° C | 99% | 1013.4 hPa | 0 mm | - | 47 W/m² | - |
| 1787919768 | 21.11° C | 99% | 1013.5 hPa | 0 mm | - | 40 W/m² | - |
| 1787919467 | 21.11° C | 99% | 1013.4 hPa | 0 mm | - | 43 W/m² | - |
| 1787919163 | 21.11° C | 99% | 1013.4 hPa | 0 mm | - | 67 W/m² | - |
| 1787918863 | 20.56° C | 99% | 1013.4 hPa | 0 mm | - | 49 W/m² | - |
| 1787918558 | 20.56° C | 99% | 1013.5 hPa | 0 mm | - | 42 W/m² | - |
| 1787918256 | 20.56° C | 99% | 1013.3 hPa | 0 mm | - | 45 W/m² | - |
| 1787917959 | 20.56° C | 99% | 1013.3 hPa | 0 mm | - | 52 W/m² | - |
| 1787917646 | 20.56° C | 99% | 1013.4 hPa | 0 mm | - | 49 W/m² | - |
| 1787917342 | 20.56° C | 99% | 1013 hPa | 0 mm | - | 35 W/m² | - |
| 1787917042 | 20.56° C | 99% | 1013.3 hPa | 0 mm | - | 42 W/m² | - |
| 1787916737 | 20.56° C | 99% | 1013.4 hPa | 0 mm | - | 34 W/m² | - |
| 1787916431 | 20.56° C | 99% | 1013.3 hPa | 0 mm | - | 31 W/m² | - |
| 1787916127 | 20.56° C | 99% | 1013.3 hPa | 0 mm | - | 20 W/m² | - |
* Rain latest hour (hover to see other rain measurements)
** Current wind speed in m/s (hover to see current wind gust speed)